Flag for United Kingdom Weather past 2 weeks in Caversham, England, United Kingdom

Now
35 °F

Chilly.


Feels Like: 31 °F
Forecast: 36 / 62 °F
Wind: 5 mph from North

Location: Benson

Current Time: Apr 19, 2015 at 5:24:47 AM

Latest Report: Apr 19, 2015 at 4:00 AM


Visibility: 9 mi

Pressure: 30.34 "Hg

Humidity: 93%

Dew point: 33 °F

Location of CavershamLocation

Historic Weather in Caversham — Graph

°F

Caversham temperature yesterday

Maximum temperature yesterday: 59 °F (at 4:00 PM)
Minimum temperature yesterday: 41 °F (at 8:00 AM)
Average temperature yesterday: 52 °F

Past Weeks' High & Low Weather Summary

 TemperatureHumidityPressure
High72 °F (Apr 15, 3:00 PM)100% (Apr 7, 7:00 AM)30.66 "Hg (Apr 7, 7:00 AM)
Low30 °F (Apr 6, 6:00 AM)34% (Apr 11, 3:00 PM)29.87 "Hg (Apr 11, 6:00 AM)
Average50 °F72%30.27 "Hg
* Reported Apr 4 5:00 AM — Apr 19 4:00 AM, Caversham, Weather by CustomWeather, © 2015

Note: Actual official high and low records may vary slightly from our data, if they occured in-between our weather recording intervals... More about our weather records

Advertising

Caversham weather history for previous 24 hours

 ConditionsComfort  
Time TempWeatherWind HumidityBarometerVisibility
4:00 AM
Sun, Apr 19
35 °FChilly.5 mph93%30.34 "Hg9 mi
3:00 AM35 °FChilly.7 mph94%30.35 "Hg9 mi
2:00 AM38 °FChilly.6 mph90%30.36 "Hg12 mi
1:00 AM40 °FChilly.10 mph86%30.36 "Hg16 mi
12:00 AM41 °FQuite cool.12 mph82%30.36 "Hg19 mi
11:00 PM
Sat, Apr 18
43 °FQuite cool.10 mph77%30.36 "Hg22 mi
10:00 PM46 °FCool.12 mph73%30.35 "Hg19 mi
9:00 PM49 °FCool.8 mph56%30.33 "Hg22 mi
8:00 PM52 °FCool.12 mph46%30.32 "Hg19 mi
7:00 PM55 °FRefreshingly cool.16 mph42%30.31 "Hg19 mi
6:00 PM57 °FRefreshingly cool.15 mph42%30.31 "Hg18 mi
5:00 PM59 °FPassing clouds.16 mph43%30.30 "Hg19 mi
4:00 PM59 °FPassing clouds.20 mph43%30.31 "Hg19 mi
3:00 PM58 °FPassing clouds.18 mph43%30.32 "Hg19 mi
2:00 PM58 °FPassing clouds.16 mph44%30.34 "Hg17 mi
1:00 PM57 °FPassing clouds.18 mph45%30.35 "Hg19 mi
12:00 PM55 °FPassing clouds.17 mph47%30.37 "Hg19 mi
11:00 AM52 °FPassing clouds.14 mph53%30.37 "Hg19 mi
10:00 AM50 °FSunny.15 mph54%30.38 "Hg19 mi
9:00 AM46 °FSunny.10 mph70%30.37 "Hg16 mi
8:00 AM41 °FQuite cool.10 mph83%30.37 "Hg11 mi
Weather by CustomWeather, © 2015

See weather overviewHow to use our weather pages